Wind_Speed
16 16 16 16 15 15 14 13 11 10 9 9 7 5 4 4 4 5 5 6 6 7 7 8 8 9 9 9 10 10 10 10 10 10 10 10 11 11 13 14 15 16 15
16 17 17 17 17 17 16 16 14 13 12 11 10 9 8 8 6 6 7 7 7 8 8 9 10 10 11 12 13 14 14 14 14 14 14 14 14 14 14 15 16 17 18
17 17 18 18 19 19 18 18 17 16 15 13 12 12 12 12 10 9 9 8 9 10 10 11 11 12 13 14 14 15 16 17 18 18 18 18 18 17 16 17 17 18 19
18 19 19 19 20 20 20 19 20 19 18 17 15 14 14 14 14 13 12 12 12 12 13 13 13 14 15 16 16 17 18 19 20 21 21 21 21 21 20 19 19 19 20
20 20 20 20 21 21 21 21 21 22 21 20 19 18 18 17 17 16 16 16 15 15 16 16 17 17 17 18 19 19 20 20 21 22 23 23 24 24 23 22 22 21 21
23 22 22 21 21 21 21 21 21 22 23 23 22 22 22 21 20 19 19 19 18 18 18 18 18 19 20 20 21 21 22 22 22 23 24 24 25 25 25 24 24 23 23
26 25 24 23 23 22 21 22 23 23 24 25 24 24 25 25 23 21 21 21 21 21 21 20 20 21 22 22 22 23 23 24 24 24 24 25 25 25 25 25 25 24 24
29 27 26 25 24 24 23 22 23 24 25 26 27 27 27 27 26 24 23 23 22 22 22 22 22 23 23 24 24 24 25 25 25 25 25 25 25 25 25 25 25 25 25
30 28 27 25 24 24 24 23 22 23 24 26 28 29 28 28 27 27 26 25 23 22 23 23 23 24 25 25 25 25 25 25 25 25 25 26 26 26 26 26 26 26 26
31 30 29 28 26 25 25 24 23 24 25 26 27 29 29 29 28 28 28 27 26 24 23 23 23 24 25 27 26 25 25 25 26 26 26 27 26 26 27 27 27 27 26
32 32 30 29 27 26 26 26 25 25 25 26 27 29 30 30 30 29 29 29 28 27 25 24 23 23 25 26 27 25 25 25 26 26 26 27 27 27 27 27 27 27 26
33 32 31 31 29 28 28 25 25 26 26 27 28 29 31 32 32 31 30 30 29 28 27 26 25 24 24 25 26 25 25 25 26 26 26 26 26 27 27 27 27 27 27
35 34 33 32 32 31 30 29 27 26 28 28 28 29 30 32 32 32 31 31 30 28 27 27 26 25 24 24 24 25 25 25 25 25 25 26 26 27 27 27 28 28 28
37 35 34 34 34 31 29 29 29 29 29 29 30 30 31 31 32 32 32 31 30 29 27 26 26 25 23 23 23 24 24 25 25 25 25 26 26 27 28 28 28 29 29
37 36 35 34 32 29 28 29 30 30 30 30 30 31 32 32 33 32 31 30 29 27 25 24 24 23 23 22 23 23 24 25 25 26 26 26 27 27 28 28 29 29 29
35 35 34 33 31 30 30 30 30 29 30 30 31 31 32 33 33 31 30 29 27 25 24 23 22 22 22 22 22 22 23 23 23 24 24 25 25 26 27 28 29 29 30
28 29 28 27 27 26 27 27 29 30 30 30 31 32 32 31 29 28 27 25 24 23 22 22 21 21 21 21 21 21 22 22 23 22 23 23 25 26 26 27 28 29 29
22 22 22 22 23 23 24 24 25 25 24 24 24 25 25 24 24 24 23 23 22 21 21 20 20 20 20 20 20 21 21 22 23 23 23 23 24 25 26 26 26 27 28
15 16 16 17 18 19 19 20 20 20 19 19 19 19 19 19 20 20 20 21 20 20 20 20 20 20 20 20 20 20 21 22 22 23 24 24 24 24 25 25 25 25 26
7 9 11 12 14 15 15 15 15 15 16 16 17 17 18 18 19 20 20 20 19 19 19 19 19 19 19 19 20 20 20 20 21 22 23 24 24 24 25 24 24 25 25
4 6 7 8 10 12 13 13 14 15 15 16 16 17 17 17 18 18 18 19 19 19 19 19 19 19 19 19 19 19 19 19 19 20 21 21 24 25 26 25 24 25 25
8 8 9 10 11 12 14 15 16 17 18 18 18 18 18 18 18 18 18 18 18 18 18 18 19 19 19 19 19 19 19 18 19 19 19 20 21 22 23 23 24 25 26
10 11 13 14 15 16 17 18 18 19 20 19 20 19 19 19 19 18 18 18 18 18 18 17 17 17 17 17 18 18 18 18 18 17 17 17 18 19 20 21 23 25 26
12 13 15 16 18 19 20 21 22 22 22 21 21 21 20 20 19 19 18 18 18 17 17 17 16 16 16 16 17 17 17 17 18 18 17 18 18 19 19 19 21 24 27
13 14 15 15 17 19 20 21 22 23 23 23 22 22 22 21 20 19 18 17 17 17 16 16 15 15 15 15 15 15 16 16 17 17 17 18 18 19 19 20 21 23 24
15 14 14 15 15 16 17 18 19 20 21 22 22 22 21 21 20 19 18 17 17 16 15 14 14 14 13 13 13 13 14 14 15 14 15 16 17 18 19 20 22 23 25
Wind_Direction
284 284 284 285 284 283 283 285 289 293 299 303 301 300 293 281 272 264 263 266 268 269 269 270 271 273 274 276 278 278 278 278 278 279 278 273 267 260 254 250 247 246 246
278 279 279 278 278 277 276 276 277 281 286 290 291 291 290 283 278 269 265 269 273 275 276 276 276 275 275 276 275 275 274 274 273 272 272 271 270 267 262 256 253 249 247
274 275 276 276 276 275 275 274 275 275 277 277 276 276 278 280 279 275 272 273 277 280 282 282 282 281 279 278 277 275 274 273 272 270 268 267 266 266 264 261 257 253 249
271 270 270 271 273 274 274 272 271 270 270 271 270 269 271 275 278 277 275 275 277 280 283 285 285 284 283 281 280 278 277 275 272 270 268 266 264 263 263 262 260 257 253
270 269 267 267 266 268 269 269 268 267 267 268 269 269 270 271 273 275 275 277 279 281 283 285 286 286 285 284 283 281 280 278 274 271 268 265 263 261 260 260 259 258 255
267 266 265 266 265 264 264 266 267 266 265 266 266 268 271 270 268 268 271 275 278 281 284 286 287 288 287 286 284 282 281 279 276 273 269 266 263 260 258 258 257 256 256
263 262 262 264 265 264 265 266 267 266 266 264 264 266 268 269 266 263 265 270 275 279 283 286 287 287 287 286 284 283 282 280 277 274 270 266 263 260 257 255 255 254 254
259 260 261 261 264 265 265 266 269 267 266 263 262 264 267 266 263 263 263 266 270 275 279 283 285 287 287 286 285 284 283 280 277 274 270 267 263 260 257 255 254 253 253
257 257 260 260 262 264 265 265 268 267 266 265 261 261 263 263 261 262 264 265 266 269 274 279 283 286 286 285 284 283 281 278 276 274 271 267 262 259 257 255 253 252 252
263 259 259 260 261 262 264 266 266 266 265 265 261 259 259 260 260 261 263 264 266 268 271 275 279 281 283 283 283 282 280 277 275 274 270 267 262 258 256 254 253 252 251
265 261 260 259 261 262 263 263 265 263 265 265 260 256 255 255 256 257 261 263 266 269 271 273 275 276 277 279 280 281 280 278 275 273 270 265 259 256 255 254 253 251 251
268 266 262 261 262 264 262 262 265 264 265 265 261 256 254 253 252 253 257 261 264 267 271 273 274 274 273 274 276 278 279 278 275 273 270 264 258 255 254 253 252 251 250
267 269 265 263 263 264 263 261 263 265 265 263 261 257 254 252 252 251 254 258 261 264 268 271 273 273 272 272 272 275 276 277 274 271 268 263 259 256 254 253 252 251 250
263 265 267 262 262 262 260 260 262 265 264 261 258 256 253 252 252 252 253 255 258 262 265 267 270 271 271 271 273 274 275 274 272 269 266 262 258 257 255 253 252 252 251
263 264 264 262 263 261 262 263 264 266 262 260 259 257 255 254 253 252 253 256 259 260 261 264 267 269 270 271 272 274 275 274 271 268 266 262 259 258 255 253 252 252 251
264 263 261 262 262 262 263 265 266 266 262 258 258 258 255 251 250 251 253 255 257 258 259 261 263 265 265 268 271 273 273 272 271 269 265 261 259 258 256 255 253 252 253
263 260 258 259 260 263 263 264 265 265 262 260 259 255 252 250 250 251 253 254 256 257 258 260 260 261 262 266 271 271 271 270 270 268 266 261 260 260 259 256 254 254 253
261 258 256 257 259 259 260 261 261 259 257 256 255 252 249 247 250 252 253 254 255 257 257 258 259 259 261 264 268 270 271 270 269 268 265 263 262 260 259 257 256 256 255
260 256 253 255 253 253 252 252 252 249 249 251 250 249 247 247 249 251 252 254 256 257 258 260 260 260 262 265 266 270 273 270 269 268 264 263 261 260 259 257 257 259 259
260 251 248 246 242 242 241 241 243 245 245 246 246 248 248 249 250 251 253 256 258 259 260 261 262 262 264 266 267 269 272 271 271 268 267 264 260 259 259 257 258 260 262
290 271 263 257 251 246 241 242 245 244 246 246 248 250 251 252 252 253 255 257 259 260 261 262 264 264 265 266 267 269 272 272 273 271 270 268 265 262 260 256 255 257 261
301 288 279 271 263 258 254 252 251 251 251 253 255 254 255 256 256 257 258 258 259 261 263 265 266 266 267 267 267 268 271 272 272 274 274 270 268 265 263 256 256 256 259
307 296 285 279 271 267 263 258 258 257 257 256 257 259 259 258 259 260 260 259 261 262 264 267 268 269 269 269 269 270 270 270 272 273 275 272 270 268 264 260 258 258 261
320 308 298 289 281 275 270 266 263 261 260 260 259 258 258 258 259 259 259 259 260 262 264 266 268 270 271 271 270 271 272 271 270 270 273 274 272 273 272 270 268 267 267
333 321 310 300 291 283 278 272 268 265 263 262 260 259 258 257 255 255 255 255 256 258 261 263 266 268 269 270 270 271 272 272 272 271 271 273 274 276 278 277 276 277 278
347 337 325 314 303 294 286 278 272 268 264 261 259 256 255 255 253 252 251 252 255 256 258 260 263 264 266 268 269 271 273 274 275 276 276 277 279 281 282 282 282 283 283
Height
5909 5908 5908 5907 5907 5907 5907 5906 5906 5905 5905 5905 5905 5904 5904 5903 5903 5903 5903 5904 5904 5904 5904 5905 5905 5905 5906 5906 5906 5907 5907 5907 5907 5907 5907 5907 5907 5907 5907 5907 5908 5909 5910
5906 5905 5904 5904 5904 5904 5904 5904 5903 5903 5903 5903 5903 5903 5902 5902 5902 5902 5902 5902 5902 5902 5903 5903 5903 5903 5903 5903 5904 5904 5904 5904 5904 5904 5904 5904 5904 5904 5904 5905 5905 5906 5907
5902 5901 5900 5900 5899 5899 5900 5899 5899 5900 5900 5901 5901 5901 5901 5900 5900 5900 5900 5900 5900 5900 5900 5900 5900 5900 5900 5900 5900 5900 5900 5900 5900 5900 5901 5901 5901 5901 5901 5901 5901 5902 5903
5898 5897 5897 5896 5895 5894 5895 5895 5895 5896 5896 5897 5898 5898 5898 5898 5897 5897 5897 5897 5897 5897 5897 5897 5897 5897 5897 5897 5897 5896 5896 5896 5896 5896 5896 5896 5896 5897 5897 5897 5897 5898 5898
5892 5892 5892 5892 5891 5891 5891 5891 5891 5891 5892 5892 5893 5893 5894 5894 5894 5894 5893 5894 5894 5894 5894 5894 5894 5893 5893 5893 5893 5892 5892 5892 5891 5891 5891 5891 5891 5892 5892 5892 5893 5893 5894
5886 5886 5886 5886 5886 5886 5886 5886 5886 5886 5886 5887 5887 5888 5888 5889 5890 5890 5889 5889 5889 5890 5890 5890 5889 5889 5889 5888 5888 5888 5887 5887 5886 5886 5885 5885 5886 5886 5886 5887 5888 5888 5889
5879 5879 5880 5880 5880 5880 5880 5880 5880 5880 5881 5881 5882 5882 5883 5883 5884 5885 5885 5885 5885 5884 5884 5885 5885 5884 5883 5883 5882 5882 5882 5881 5881 5880 5880 5879 5880 5880 5881 5881 5882 5883 5884
5872 5872 5873 5874 5874 5874 5874 5874 5874 5874 5874 5875 5876 5876 5877 5878 5878 5879 5880 5881 5881 5880 5879 5879 5879 5879 5878 5877 5876 5876 5876 5875 5875 5874 5874 5873 5873 5874 5875 5875 5876 5877 5878
5863 5865 5866 5866 5867 5867 5867 5867 5868 5868 5868 5868 5869 5870 5870 5871 5872 5873 5873 5874 5875 5875 5875 5874 5874 5873 5872 5870 5870 5870 5869 5869 5868 5868 5868 5867 5867 5868 5868 5869 5870 5871 5872
5855 5856 5857 5858 5859 5859 5859 5860 5860 5861 5861 5861 5861 5862 5863 5864 5865 5866 5867 5867 5868 5869 5869 5869 5868 5867 5866 5864 5863 5863 5863 5862 5862 5861 5861 5861 5861 5861 5862 5863 5864 5865 5866
5846 5847 5849 5850 5850 5851 5851 5852 5852 5853 5853 5854 5854 5855 5856 5857 5858 5859 5860 5861 5861 5862 5862 5863 5863 5862 5860 5858 5857 5857 5856 5856 5855 5855 5854 5854 5854 5855 5856 5857 5858 5859 5860
5837 5837 5839 5841 5842 5843 5843 5844 5844 5845 5846 5846 5846 5847 5848 5849 5851 5852 5853 5854 5855 5855 5855 5855 5855 5855 5855 5853 5851 5850 5850 5849 5849 5848 5848 5848 5848 5849 5849 5850 5852 5853 5854
5830 5829 5830 5831 5833 5834 5834 5835 5836 5837 5837 5838 5838 5839 5840 5842 5843 5845 5846 5847 5848 5848 5848 5848 5847 5848 5848 5847 5846 5844 5844 5843 5842 5842 5841 5841 5842 5843 5843 5844 5845 5847 5848
5820 5821 5821 5822 5823 5824 5825 5826 5827 5828 5829 5829 5830 5831 5832 5834 5835 5837 5839 5840 5840 5841 5841 5841 5841 5841 5840 5840 5839 5838 5837 5836 5836 5835 5835 5835 5836 5836 5837 5838 5839 5840 5842
5811 5812 5812 5813 5814 5815 5817 5818 5818 5819 5820 5820 5821 5822 5824 5826 5828 5829 5831 5832 5833 5834 5835 5835 5835 5834 5834 5833 5833 5831 5831 5830 5829 5829 5829 5829 5830 5830 5831 5832 5833 5834 5835
5802 5803 5804 5805 5806 5807 5809 5809 5810 5811 5811 5812 5813 5815 5816 5818 5820 5821 5823 5824 5825 5827 5827 5828 5828 5828 5827 5827 5826 5825 5824 5824 5823 5823 5823 5823 5824 5824 5825 5826 5826 5827 5828
5793 5794 5795 5796 5798 5799 5800 5801 5802 5803 5804 5804 5805 5807 5808 5810 5812 5814 5815 5817 5818 5820 5821 5821 5822 5821 5821 5821 5820 5819 5818 5818 5817 5817 5817 5817 5818 5818 5819 5819 5820 5821 5822
5787 5788 5789 5790 5791 5792 5793 5794 5795 5795 5796 5797 5798 5800 5801 5803 5805 5807 5809 5810 5812 5813 5814 5815 5815 5815 5815 5815 5814 5814 5813 5812 5812 5812 5812 5812 5812 5812 5813 5813 5814 5814 5815
5782 5783 5783 5784 5785 5786 5787 5787 5788 5789 5790 5791 5793 5794 5796 5797 5799 5801 5803 5804 5806 5807 5808 5808 5809 5809 5809 5809 5809 5808 5807 5807 5806 5806 5806 5806 5806 5806 5806 5807 5808 5808 5809
5779 5779 5779 5780 5780 5781 5782 5783 5783 5784 5785 5787 5788 5789 5791 5792 5794 5796 5797 5799 5800 5801 5802 5802 5803 5803 5803 5803 5803 5803 5802 5801 5801 5801 5800 5800 5800 5800 5800 5801 5801 5802 5802
5777 5777 5777 5777 5777 5778 5778 5779 5779 5780 5781 5782 5783 5785 5786 5787 5788 5790 5792 5793 5794 5795 5796 5796 5797 5797 5798 5798 5798 5797 5797 5797 5796 5796 5795 5795 5794 5794 5794 5794 5795 5796 5796
5776 5775 5775 5774 5774 5775 5775 5775 5776 5776 5777 5778 5779 5779 5781 5782 5783 5785 5786 5787 5788 5789 5790 5791 5792 5792 5792 5792 5792 5792 5792 5792 5791 5791 5790 5789 5789 5788 5788 5788 5789 5789 5789
5774 5773 5772 5771 5771 5770 5770 5770 5771 5771 5772 5772 5773 5774 5775 5776 5778 5779 5780 5782 5783 5784 5785 5786 5787 5787 5787 5787 5788 5787 5787 5787 5786 5785 5785 5784 5784 5783 5783 5782 5782 5783 5783
5772 5770 5768 5767 5766 5765 5764 5764 5764 5765 5765 5766 5767 5768 5769 5770 5772 5774 5775 5777 5778 5779 5780 5781 5782 5782 5783 5783 5783 5783 5783 5782 5782 5781 5781 5780 5780 5779 5778 5777 5777 5776 5776
5769 5767 5764 5762 5760 5759 5758 5757 5757 5758 5758 5759 5760 5761 5763 5764 5766 5768 5770 5772 5773 5774 5776 5777 5777 5778 5778 5779 5778 5778 5778 5778 5777 5777 5776 5776 5775 5774 5773 5772 5771 5770 5769
5768 5764 5761 5758 5755 5753 5752 5751 5750 5751 5751 5752 5753 5755 5756 5758 5761 5763 5765 5767 5769 5770 5772 5773 5773 5774 5774 5775 5775 5775 5774 5774 5773 5772 5772 5771 5770 5769 5769 5767 5766 5764 5763